Regional Weather Roundup
Issued by NWS Charleston, SC

Home | Current Version | Previous Version | Text Only | Print | Product List | Glossary On
Versions: 1 2 3 4 5 6 7 8 9 10 11 12 13 14 15 16 17 18 19 20 21 22 23 24 25 26 27 28 29 30 31 32 33 34 35 36 37 38 39 40 41 42 43 44 45 46 47 48 49 50
093
ASUS42 KCHS 221327
RWRCHS

REGIONAL WEATHER ROUNDUP
NATIONAL WEATHER SERVICE CHARLESTON SC
900 AM EDT FRI MAY 22 2015

NOTE: "FAIR" INDICATES FEW OR NO CLOUDS BELOW 12,000 FEET WITH NO
SIGNIFICANT WEATHER AND/OR OBSTRUCTIONS TO VISIBILITY.

NOT ALL STATIONS ARE QUALITY CONTROLLED BY THE NATIONAL
WEATHER SERVICE. USE DATA WITH CAUTION...ESPECIALLY
DEWPOINT OBSERVATIONS.

SCZ027-030-031-034>040-042>050-221400-
...SOUTHEAST SOUTH CAROLINA...

CITY           SKY/WX    TMP DP  RH WIND       PRES   REMARKS
N CHARLESTON   PTSUNNY   69  51  52 NE17G25   30.12R
WATERFRONT PAR   N/A     69  58  68 NE15      30.08R
MOUNT PLEASANT FAIR      70  54  56 N10G17    30.12R
JOHNS ISLAND   CLOUDY    70  54  56 NE15      30.12R
PINOPOLIS      NOT AVBL
MONCKS CORNER  CLOUDY    70  52  52 NE10      30.13R
SUMMERVILLE    CLOUDY    68  54  60 N10G16    30.14R
BEAUFORT MCAS  PTSUNNY   71  59  65 E10       30.10R
BEAUFORT ARPT  PTSUNNY   72  61  68 NE15      30.10R
HILTON HEAD IS PTSUNNY   70  61  73 N7        30.10R
WALTERBORO     CLOUDY    68  54  60 NE13      30.14R
ALLENDALE      CLOUDY    70  57  64 VRB7G14   30.12R

...SOUTHERN MIDLANDS AND PEE DEE...

CITY           SKY/WX    TMP DP  RH WIND       PRES   REMARKS
GEORGETOWN     NOT AVBL
KINGSTREE      NOT AVBL
ORANGEBURG     CLOUDY    67  49  52 NE14G20   30.14R
BARNWELL       PTSUNNY   70  54  56 NE15      30.14R
AIKEN          PTSUNNY   68  43  40 NE14G22   30.18R
MANNING        CLOUDY    64  46  52 NE14G20   30.15R
COLUMBIA       PTSUNNY   67  45  45 NE12      30.17R
SUMTER         PTSUNNY   65  47  52 NE15G23   30.15R
FLORENCE       CLOUDY    64  46  52 N13       30.17R
MYRTLE BEACH   PTSUNNY   66  52  59 N18       30.15R
N MYRTLE BEACH CLOUDY    66  54  65 N13       30.14R

$$

GAZ063-065-086>088-099>101-113>116-118-119-134>141-150-221400-
...SOUTHEAST GEORGIA...

CITY           SKY/WX    TMP DP  RH WIND       PRES   REMARKS
SAVANNAH ARPT  PTSUNNY   69  56  62 N6        30.10R
HUNTER AAF     SUNNY     69  57  64 N6        30.07R
FORT STEWART   SUNNY     68  53  58 NW7       30.09R
STATESBORO     CLOUDY    66  58  75 N5        30.13R
SYLVANIA       CLOUDY    69  59  71 NE5       30.13R
CLAXTON        PTSUNNY   66  55  68 NW5       30.13R

...CSRA...CENTRAL AND FAR SOUTHEAST GEORGIA...

CITY           SKY/WX    TMP DP  RH WIND       PRES   REMARKS
THOMSON        PTSUNNY   66  54  66 NE12G17   30.21R
AUGUSTA-BUSH   CLOUDY    67  50  54 NE9       30.13R
AUGUSTA-DANIEL PTSUNNY   65  49  56 NE9       30.15R
SWAINSBORO     FAIR      68  54  60 N5        30.15R
VIDALIA        SUNNY     64  52  63 N7        30.14R
EASTMAN        FAIR      64  53  66 N8        30.18R
HAZLEHURST     FAIR      67  53  59 N7        30.14R
ALMA           SUNNY     66  52  60 N6        30.13R
WAYCROSS       SUNNY     69  56  65 NE7       30.13R
JESUP          FAIR      72  57  60 N3        30.13R
BAXLEY         FAIR      68  52  56 N8        30.13R
BRUNSWICK      SUNNY     72  57  60 N6        30.11R
SAINT SIMONS   NOT AVBL

$$

SCZ027-028-034-036>038-045-046-048>050-GAZ119-141-221400-
...LAKE AND SUPPLEMENTAL COASTAL OBSERVATIONS...

STATION/POSITION TIME  TEMP    WIND        PRES    WAVE   SWELL
                       AIR SEA DIR/SP/G            HT/PER HT/PER/DIR
                 (UTC) (F)     (DEG/KT/KT) (MB)    (FT/S) (FT/S/D)
UPR LAKE MARION  NOT AVBL
WINYAH BAY       1245   66      30/ 11     1019.0R
LAKE MURRAY      1200   65      40/  4/  6 1020.0R
ACE BASIN NERRS  NOT AVBL
FORT PULASKI     1300   68 78   20/  5/  8 1019.5R
SAPELO ISLAND    1300   71     350/  8     1019.0R

$$

ANZ835-935-AMZ111-154-330-350-352-354-370-450-454-472-221400-
...C-MAN AND BUOY OBSERVATIONS...

STATION/POSITION TIME  TEMP    WIND        PRES    WAVE   SWELL
                       AIR SEA DIR/SP/G            HT/PER HT/PER/DIR
                 (UTC) (F)     (DEG/KT/KT) (MB)    (FT/S) (FT/S/D)
BUOY 41004       1250   69 76   30/ 23/ 27 1017.9R   6/ 6   2/11
BUOY 41008       1250   71 77   20/ 14/ 16 1018.7R   3/ 4
FOLLY BEACH CMAN 1300   68      40/ 18/ 21 1019.8R
CAPERS NEARSHORE 1208   69      40/ 19/ 27 1019.2R
FRIPP NEARSHORE  1200   72      80/ 19/ 23 1017.8R


STATION/POSITION TIME  TEMP    WIND        PRES    WAVE   SWELL
                       AIR SEA DIR/SP/G            HT/PER HT/PER/DIR
                 (UTC) (F)     (DEG/KT/KT) (MB)    (FT/S) (FT/S/D)
5E ST. MARYS GA  1221      77                N/A     2/ 3
FRYING PAN BUOY  1250   68 74   30/ 19/ 23 1019.5R   5/ 5
BUOY 41025       1250   63 76  360/ 16/ 19 1018.8R   5/ 7   2/340/13
CAPE LOOKOUT NC  1300   62     360/ 14/ 17 1019.8R
BUOY 41002       1250   76 75  240/ 12/ 14 1016.8R   4/ 7   3/270/ 7
BUOY 41010       1220   81 79  250/ 10/ 10 1017.4R
ST AUGUSTINE FL  1300   73 72  350/ 13/ 14 1019.4R


$$



USA.gov is the U.S. government's official web portal to all federal, state and local government web resources and services.